Location: Castelvieil
(43.2846°N, 0.1958°E)
Time: 03:30:41
(UTC+00:00)

Daily predictions for brighter satellites

Satellite Brightness Start Highest point End
(mag) Time Altitude Azimuth Time Altitude Azimuth Time Altitude Azimuth
Thor Agena Rocket 3.5 00:00:03 10° NNE 00:04:53 72° ENE 00:04:53 72° ENE
Cosmos 1707 Rocket 4.0 00:01:44 10° N 00:05:18 58° N 00:05:18 58° N
Okean 1 4.3 00:02:27 10° N 00:05:27 45° NNE 00:05:27 45° NNE
Cosmos 494 Rocket 4.1 00:13:18 65° E 00:13:18 65° E 00:18:01 10° NNE
Cosmos 2285 Rocket 3.8 00:09:00 10° NNW 00:15:20 84° WSW 00:16:07 70° S
Cosmos 2333 Rocket 2.0 00:10:11 10° NNW 00:15:51 83° WSW 00:16:01 81° SSW
Meteor 1-25 Rocket 4.2 00:18:08 63° WSW 00:18:35 66° WNW 00:24:10 10° N
ATLAS 5 CENTAUR R/B 3.4 00:18:44 10° NNW 00:23:56 40° NE 00:28:59 14° ESE
Cosmos 2360 Rocket 3.2 00:20:44 10° NW 00:25:09 32° W 00:25:09 32° W
Cosmos 1452 Rocket 3.7 00:22:09 10° NNW 00:26:57 59° W 00:26:57 59° W
PSLV R/B 3.9 00:23:47 10° N 00:28:18 75° NW 00:28:18 75° NW
Cosmos 1666 4.1 00:29:45 35° NE 00:29:45 35° NE 00:32:19 10° NNE
Meteor 1-14 Rocket 4.1 00:30:32 70° ESE 00:30:50 72° E 00:36:24 10° NNE
Meteor 1-19 Rocket 4.1 00:25:51 10° NNW 00:31:33 73° W 00:31:46 72° WSW
Cosmos 2322 3.7 00:26:37 10° NNW 00:32:16 65° WSW 00:32:16 65° WSW
APEX 4.3 00:40:59 59° ESE 00:41:06 59° ESE 00:47:09 10° NNE
Resurs 1-4 Rocket 3.5 00:38:59 10° NE 00:43:23 26° E 00:44:08 25° ESE
Cosmos 2297 Rocket 2.9 00:46:29 40° ESE 00:46:49 40° ESE 00:52:04 10° NE
NOSS 3-1 (C) 4.1 00:43:59 10° NW 00:51:36 65° WSW 00:54:02 48° S
Cosmos 2237 Rocket 2.9 00:46:40 10° NNW 00:52:11 50° ENE 00:54:35 31° ESE
Cosmos 2322 Rocket 4.5 00:52:06 10° W 00:52:15 10° W 00:52:15 10° W
Meteor 2-17 Rocket 4.3 00:54:55 65° S 00:55:53 86° E 01:01:58 10° N
Cosmos 2227 Rocket 3.0 00:56:52 36° ESE 00:57:26 37° ESE 01:02:34 10° NE
Cosmos 1709 Rocket 4.1 00:58:20 54° SSE 00:59:42 70° E 01:06:01 10° NNE
Cosmos 1470 Rocket 3.9 01:00:37 56° NW 01:00:37 56° NW 01:04:22 10° N
Cosmos 1110 Rocket 4.1 00:55:35 10° NNW 01:00:40 60° W 01:00:40 60° W
USA 229 DEB 3.8 00:54:58 10° NW 01:02:23 82° WSW 01:05:35 40° SSE
USA 229 3.8 00:55:04 10° NW 01:02:29 82° WSW 01:05:44 39° SSE
Meteor 2-4 Rocket 3.8 00:58:39 10° NNW 01:04:33 69° W 01:05:16 63° SW
EO 1 Del DPAF 4.2 01:01:01 10° N 01:03:46 42° NNW 01:03:46 42° NNW
Cosmos 1933 Rocket 3.6 01:07:30 76° NNW 01:07:30 76° NNW 01:11:41 10° N
Cosmos 1745 Rocket 4.1 01:06:16 53° WSW 01:07:24 62° W 01:13:36 10° N
NOSS 0 Rocket 3.8 01:03:55 10° NNW 01:10:10 82° WSW 01:11:33 57° S
YAOGAN 11 4.1 01:10:25 87° NNE 01:10:25 87° NNE 01:14:57 10° NNW
Cosmos 1633 Rocket 4.5 01:10:54 28° WNW 01:10:54 28° WNW 01:14:25 10° NNW
MOZ.5/SAFIR/RUBIN 5/SL-8 3.7 01:11:26 73° ESE 01:11:46 78° ENE 01:16:32 10° N
Cosmos 1331 Rocket 4.3 01:06:59 10° NNW 01:11:47 52° W 01:11:47 52° W
Lacrosse 5 2.8 01:12:35 34° ESE 01:12:35 34° ESE 01:16:41 10° ENE
COSMOS 2428 3.2 01:07:37 10° NW 01:12:40 42° W 01:12:40 42° W
ADEOS Rocket 4.0 01:11:00 18° ESE 01:14:36 36° ENE 01:19:35 10° N
SL-16 R/B 4.0 01:10:00 10° N 01:14:52 29° NE 01:19:44 10° ESE
SL-16 R/B 3.0 01:13:31 28° SE 01:16:41 55° ENE 01:22:43 10° N
COSMOS 2455 3.9 01:14:39 26° W 01:17:06 36° NW 01:22:39 10° NNE
Cosmos 1544 4.0 01:18:15 44° NE 01:18:15 44° NE 01:21:07 10° NNE
CZ-2D R/B 2.6 01:12:22 10° NNE 01:17:36 50° E 01:18:42 44° SE
Helios 1A 3.0 01:18:25 76° NNW 01:18:25 76° NNW 01:22:22 10° NNW
Okean 1-7 3.0 01:14:08 10° N 01:18:05 76° N 01:18:05 76° N
Meteor 1-5 Rocket 4.4 01:18:51 52° WSW 01:19:41 58° WNW 01:25:23 10° N
Cosmos 909 Rocket 4.4 01:18:54 46° SSE 01:20:31 59° ESE 01:27:41 10° NE
Okean 3 3.9 01:18:19 10° N 01:22:33 53° E 01:22:53 52° E
NOSS 3-1 (A) 4.1 01:15:08 10° NW 01:22:46 67° WSW 01:26:38 36° S
Cosmos 2219 Rocket 3.4 01:18:42 10° NW 01:22:37 27° W 01:22:37 27° W
ARGOS Delta rocket 3.8 01:20:52 10° N 01:25:36 63° WNW 01:25:47 62° W
ADEOS II 3.5 01:21:40 10° NE 01:26:13 29° E 01:28:02 23° SE
Cosmos 1340 Rocket 3.3 01:27:12 50° NW 01:27:12 50° NW 01:30:28 10° N
CZ-4 R/B 4.0 01:25:33 10° N 01:30:27 62° WNW 01:31:02 57° WSW
Cosmos 1743 3.3 01:33:42 49° E 01:33:42 49° E 01:37:18 10° NNE
Cosmos 1269 Rocket 4.1 01:34:36 55° WSW 01:35:28 64° WNW 01:40:44 10° NNE
ASTEX 1 3.3 01:38:33 64° SW 01:38:59 68° W 01:43:52 10° N
AQUA 4.3 01:36:14 10° NNE 01:40:54 51° E 01:41:55 43° SE
Cosmos 2219 3.1 01:42:03 54° SSW 01:43:28 87° WNW 01:49:16 10° NNE
Helios 1B rocket 2.8 01:41:06 10° NNE 01:45:08 53° E 01:45:31 51° ESE
Cosmos 2074 Rocket 4.3 01:43:18 34° SSE 01:45:59 61° E 01:52:05 10° NNE
Cosmos 1703 Rocket 4.1 01:43:09 10° NNW 01:46:53 42° WNW 01:46:53 42° WNW
Cosmos 1066 Rocket 4.2 01:42:05 10° NNW 01:47:56 74° W 01:49:38 47° SSW
Cosmos 2084 Rocket 3.6 01:51:15 10° NW 01:55:29 74° NE 01:57:52 26° SE
Meteor 1-11 Rocket 3.9 01:54:11 45° SW 01:55:31 57° WNW 02:00:59 10° N
Cosmos 2333 Rocket 4.4 01:57:41 10° W 01:58:00 10° W 01:58:00 10° W
Cosmos 2181 Rocket 4.0 01:53:07 10° NNW 01:59:26 67° W 02:01:43 40° SSW
Cosmos 1992 Rocket 3.9 01:56:58 10° NNW 02:02:15 90° NE 02:04:37 34° SSE
Cosmos 2082 3.9 02:02:39 39° S 02:04:43 66° ESE 02:10:25 10° NNE
Cosmos 1733 Rocket 3.4 02:05:38 41° SSE 02:06:58 60° E 02:11:22 10° NNE
ATLAS 5 CENTAUR R/B 2.7 02:03:12 10° NW 02:08:44 45° WSW 02:10:23 37° SSW
Cosmos 1842 3.9 02:07:42 10° N 02:11:29 50° ENE 02:13:03 30° SE
Cosmos 1980 4.2 02:06:23 10° NW 02:11:33 37° WSW 02:12:06 36° WSW
CZ-4C R/B 4.2 02:05:42 10° NNW 02:12:28 43° NE 02:20:16 10° ESE
Cosmos 1536 4.0 02:15:44 28° WNW 02:15:50 28° WNW 02:19:20 10° NNW
IDEFIX/ARIANE 42P 3.3 02:13:58 10° NNE 02:18:58 47° E 02:22:01 22° SSE
Resurs 1-4 Rocket 2.7 02:18:21 10° N 02:23:20 43° WNW 02:25:13 31° WSW
CBERS-1 4.4 02:21:50 10° NNE 02:26:54 58° E 02:29:52 24° S
Cosmos 2251 Rocket 3.5 02:27:52 36° SSW 02:30:02 77° WNW 02:35:21 10° NNE
Cosmos 2297 Rocket 3.3 02:28:17 22° W 02:30:55 33° NW 02:36:01 10° N
Meteor 1-29 2.7 02:29:22 10° N 02:32:41 82° WNW 02:33:11 61° SSW
Cosmos 2237 Rocket 3.2 02:31:22 10° NW 02:35:54 25° WSW 02:36:20 25° WSW
NPP 4.3 02:31:22 10° N 02:36:25 42° WNW 02:38:43 28° WSW
Okean 2 3.6 02:37:05 10° N 02:41:15 69° E 02:44:23 17° SSE
Cosmos 1238 Rocket 2.3 02:40:33 46° SSE 02:41:17 71° E 02:44:32 10° NNE
Cosmos 2227 Rocket 3.2 02:38:41 22° WSW 02:41:28 35° NW 02:46:38 10° N
Nadezhda 3 Rocket 4.0 02:35:24 10° N 02:41:47 84° W 02:47:13 15° S
Cosmos 2221 Rocket 4.0 02:41:35 10° NNW 02:45:56 47° W 02:47:39 31° SW
BREEZE-M DEB (TANK) 4.1 02:38:45 21° SW 02:46:32 73° SSE 02:50:14 10° ENE
Cosmos 2327 Rocket 4.5 02:46:03 24° SSW 02:49:57 71° W 02:56:08 10° N
CZ-4C R/B 3.8 02:46:36 10° SSE 02:50:34 65° ENE 02:54:47 10° N
Meteor 2-9 Rocket 4.2 02:51:22 26° SSW 02:54:17 62° WNW 02:59:36 10° N
Lacrosse 5 2.5 02:51:46 20° WSW 02:54:59 48° NW 02:59:54 10° NE
CZ-2D R/B 3.6 02:53:08 10° NNW 02:57:19 24° WNW 03:00:01 16° WSW
Cosmos 1140 Rocket 3.6 02:54:33 21° S 02:58:07 75° ESE 03:03:22 10° NNE
SL-16 R/B 2.4 02:53:48 10° NW 02:59:11 47° WSW 03:04:02 13° S
ADEOS Rocket 3.6 02:57:57 23° SW 03:00:12 31° W 03:05:03 10° NW
SL-16 R/B 3.6 02:58:37 21° WSW 03:00:37 25° W 03:05:35 10° NW
ARIANE 5 R/B 3.0 02:59:32 10° NNE 03:04:38 58° ESE 03:09:42 10° S
ADEOS II 2.8 03:01:07 10° N 03:05:57 38° WNW 03:08:58 20° WSW
CZ-4B R/B 4.1 03:02:21 10° NNE 03:07:06 50° E 03:11:43 10° S
IRS-1C 4.2 03:03:25 10° NNE 03:08:47 79° ESE 03:13:33 13° S
Cosmos 1674 Rocket 3.9 03:04:38 10° NNW 03:08:52 46° W 03:11:40 20° SSW
ATLAS CENTAUR R/B 2.5 03:06:59 15° S 03:09:35 32° ESE 03:13:04 10° NE
NOSS 3-3 (A) 4.0 03:05:31 19° SSW 03:09:40 70° ESE 03:16:03 10° NE
Cosmos 2263 Rocket 2.3 03:05:29 18° SSW 03:09:46 80° ESE 03:15:29 10° NNE
NOSS 3-3 (C) 4.0 03:05:38 19° SSW 03:09:47 69° ESE 03:16:08 10° NE
Cosmos 2154 Rocket 4.4 03:09:01 20° SW 03:13:01 45° WNW 03:18:58 10° N
Meteor 1-28 Rocket 4.2 03:12:37 24° SW 03:13:44 28° W 03:17:00 10° NW
Cosmos 1461 3.1 03:10:48 22° SW 03:13:45 86° WNW 03:18:15 10° NNE
Cosmos 1975 3.7 03:13:47 22° SW 03:15:43 34° WNW 03:19:28 10° N
IRS-1D 4.2 03:12:57 10° N 03:17:31 38° WNW 03:20:43 18° SW
Cosmos 1975 Rocket 3.5 03:21:58 10° N 03:26:21 64° E 03:30:41 10° SSE
In-Cosmos 22 4.3 03:21:13 10° NNW 03:26:59 70° W 03:32:40 10° S
KORONAS-FOTON 4.0 03:25:33 10° N 03:29:29 79° E 03:33:23 10° S
Cosmos 1378 Rocket 4.4 03:26:53 10° NNW 03:30:45 31° W 03:33:46 14° SW
Cosmos 676 Rocket 4.3 03:27:14 10° S 03:32:31 73° ESE 03:37:51 10° NNE
GEOS 3 Rocket 3.6 03:27:13 10° SSE 03:32:34 73° SW 03:37:54 10° NW
SL-8 R/B 3.7 03:30:01 16° WSW 03:33:53 81° SSE 03:38:42 10° ENE
Cosmos 1707 3.4 03:31:51 10° NNW 03:35:21 35° W 03:38:31 12° SSW
Cosmos 1908 Rocket 4.1 03:33:16 15° SW 03:36:30 39° WNW 03:40:35 10° N
Cosmos 44 3.4 03:31:51 10° NNW 03:37:08 89° ENE 03:42:04 10° SSE
Cosmos 1943 3.2 03:34:18 10° NNW 03:40:03 88° WSW 03:45:45 10° SSE
PAYLOAD A 4.4 03:36:21 10° NNE 03:41:49 75° ESE 03:47:09 10° S
Cosmos 407 Rocket 4.1 03:37:29 14° SW 03:41:51 43° WNW 03:46:52 10° N
Meteor 1-12 Rocket 4.3 03:37:15 10° S 03:42:54 89° W 03:48:39 10° N
Cosmos 1959 Rocket 4.5 03:40:29 10° SSW 03:46:35 75° W 03:52:47 10° N
BREEZE-M DEB (TANK) 2.3 03:44:24 10° WNW 03:47:27 85° NNE 03:50:43 10° ESE
USA 281 4.0 03:41:06 10° SE 03:47:28 57° ENE 03:53:53 10° NNW
Cosmos 1766 4.0 03:44:36 10° S 03:48:21 53° E 03:52:11 10° NNE
SL-8 Rocket 4.2 03:46:29 10° SSW 03:52:30 55° WNW 03:58:34 10° N
Cosmos 1733 3.3 03:50:01 10° S 03:53:51 85° E 03:57:43 10° N
Cosmos 2366 rocket 4.1 03:48:09 10° SSW 03:54:26 66° W 04:00:47 10° N
IDEFIX/ARIANE 42P 3.9 03:54:13 10° NNW 03:58:15 23° WNW 04:02:17 10° WSW
Cosmos 1763 Rocket 4.1 03:54:15 10° NNW 03:59:34 64° ENE 04:04:48 10° SSE
Cosmos 1484 Rocket 4.2 03:57:39 10° NNE 04:01:23 40° E 04:05:08 10° SSE
CZ-4C R/B 3.2 03:54:05 10° NW 04:01:24 57° WSW 04:09:41 10° SSE
Cosmos 2344 3.9 03:54:51 10° SW 04:02:12 58° NW 04:09:58 10° NNE
SL-24 R/B - RUBIN 2 3.9 03:57:10 10° NNW 04:02:12 80° NE 04:06:42 10° SE
USA 215 3.3 03:56:32 10° NE 04:03:05 85° NW 04:09:38 10° SW
Cosmos 1400 Rocket 2.8 04:00:40 10° SSW 04:04:29 67° W 04:08:23 10° N
Cosmos 1025 Rocket 3.0 04:00:48 10° N 04:05:08 87° W 04:09:28 10° S
Cosmos 1315 Rocket 4.2 04:06:35 10° SSE 04:10:27 41° E 04:14:18 10° NNE
